Wetbulb
56.80 56.84 56.50 56.49 56.36 55.46 55.16 55.08 54.86 54.59 54.02 54.22 54.18 53.66 52.98 52.07 51.44 50.28 49.71 49.68 48.27 48.25 46.86 46.87 45.19 42.85 41.00 40.64 40.28 40.27 40.26 41.04 38.82 40.81 40.93 38.83 38.23 38.19 37.78 36.78 37.76 36.29 36.44
56.14 56.00 55.14 55.34 55.27 54.34 54.36 54.36 54.33 53.99 54.20 54.20 53.62 53.49 53.14 52.39 51.62 50.45 49.54 49.91 48.13 46.94 47.95 46.56 45.77 44.09 40.07 39.52 39.28 38.81 38.73 39.73 39.30 37.94 39.00 37.39 36.40 37.83 35.66 35.09 35.22 35.99 34.82
55.54 54.91 54.75 54.41 54.12 53.54 53.70 53.49 53.28 52.91 52.52 52.20 51.82 51.37 51.57 51.51 50.58 50.18 49.98 49.09 48.54 47.33 45.74 44.78 44.00 43.19 39.53 39.11 39.28 39.06 39.96 39.86 39.60 36.78 36.57 37.33 36.02 35.01 34.14 34.67 34.31 33.22 34.53
54.52 54.79 53.78 53.33 53.45 52.98 52.93 52.84 51.87 50.64 49.08 48.88 49.36 50.08 50.10 49.58 49.10 48.81 48.45 47.99 46.08 43.17 42.49 40.77 39.07 37.72 36.70 36.88 37.15 35.85 37.83 36.05 35.30 34.85 36.40 34.62 34.26 34.44 34.59 32.37 30.58 32.18 31.54
52.19 52.57 52.90 52.78 51.86 51.43 50.53 50.15 50.03 48.12 47.67 47.32 46.89 45.58 43.74 42.14 41.91 44.90 45.18 43.52 42.07 41.36 40.04 37.90 36.82 36.34 35.74 34.91 34.40 32.46 33.67 34.09 33.39 32.19 31.44 32.46 32.45 32.17 31.50 32.50 30.25 30.48 30.84
51.19 51.51 51.19 50.82 49.79 48.96 48.33 46.96 45.36 44.27 43.43 43.00 43.10 42.81 38.87 38.67 38.30 40.20 43.87 42.36 41.30 39.27 36.35 35.46 36.24 35.71 34.44 34.06 33.89 33.31 32.50 30.83 30.22 30.86 29.22 32.92 32.92 32.94 32.95 32.04 29.38 27.99 26.55
50.43 50.37 50.21 49.43 47.51 46.88 45.42 43.36 40.19 37.48 37.18 36.74 36.79 39.46 36.73 36.01 38.31 38.83 38.62 38.38 37.40 36.34 35.46 35.12 34.80 35.12 34.25 32.87 33.41 31.81 30.69 30.87 31.24 31.59 31.35 29.87 33.10 33.90 33.24 32.38 29.57 28.19 25.90
45.51 44.61 45.45 44.11 41.34 39.83 37.71 35.83 35.09 35.41 34.25 34.07 34.78 35.32 34.62 35.50 37.01 36.83 35.85 35.36 34.38 33.33 33.70 33.57 32.12 30.75 31.39 30.92 30.44 29.02 27.44 27.10 28.10 29.74 29.92 30.66 31.80 35.45 33.61 33.97 31.93 29.97 29.99
37.51 36.97 36.97 37.13 34.99 34.46 33.74 33.55 33.19 33.37 33.01 32.83 33.01 33.90 33.19 33.15 36.17 35.70 34.62 33.49 31.73 30.50 31.08 32.65 30.51 29.08 30.51 30.66 28.76 27.28 24.75 22.06 28.09 29.56 31.23 32.50 33.49 36.30 35.64 33.42 30.96 29.32 26.95
35.55 34.82 35.00 35.19 34.46 33.37 33.19 33.01 32.83 32.83 32.83 33.16 32.65 33.01 34.29 32.83 36.03 35.47 34.03 32.52 30.57 29.44 28.51 28.38 28.98 24.89 27.95 29.03 25.82 28.20 16.75 17.16 20.41 20.91 26.67 27.74 30.38 31.07 33.66 33.66 33.06 30.14 25.45
34.46 34.10 34.10 34.28 33.90 33.69 33.36 33.01 32.65 32.65 32.47 32.10 32.24 32.29 32.29 32.59 33.12 35.10 35.11 32.15 30.96 29.52 26.50 22.07 21.73 27.45 28.42 29.39 27.51 21.56 24.02 15.47 19.76 21.92 24.71 27.18 26.93 26.17 26.74 27.88 32.27 29.92 25.95
33.92 33.74 33.55 33.71 33.69 33.86 33.15 32.80 32.83 32.47 32.00 31.80 31.40 31.61 31.85 31.86 32.35 32.78 33.60 33.76 33.00 29.21 24.99 18.63 19.00 27.27 27.61 27.36 23.59 27.62 27.40 19.76 16.23 15.47 16.18 22.24 22.40 23.45 24.55 25.99 27.66 28.93 28.87
33.55 33.19 33.36 33.33 33.33 33.45 32.85 32.35 32.32 32.30 31.32 31.09 31.51 30.28 30.15 30.34 29.61 30.58 30.03 31.38 32.07 24.89 21.54 23.60 27.03 27.12 25.78 24.18 26.69 27.41 19.70 17.48 15.58 15.91 14.07 18.19 20.15 23.89 24.56 24.70 25.56 26.10 25.55
33.51 33.25 33.25 33.21 33.12 33.10 31.76 32.67 32.46 32.14 31.97 31.88 31.19 30.07 29.89 28.60 28.07 28.21 28.50 28.81 28.10 24.68 21.82 17.85 17.67 20.34 17.31 15.15 15.98 19.36 16.94 19.11 15.18 13.43 12.62 15.89 18.38 20.15 22.90 22.58 21.96 22.99 22.67
33.54 33.18 32.83 32.86 32.68 32.56 31.62 32.27 32.79 31.41 33.18 32.19 31.44 30.95 29.40 28.06 28.10 28.95 28.73 27.81 22.79 25.28 18.01 14.09 13.72 10.79 9.96 11.05 11.63 10.81 13.51 13.39 13.15 11.41 13.77 17.64 19.49 20.17 20.70 21.77 21.93 21.17 19.39
33.79 33.66 33.40 33.30 32.88 31.98 30.43 28.57 31.51 31.82 32.99 33.96 33.35 32.24 30.75 31.77 31.23 30.75 30.47 30.46 29.55 26.16 16.33 12.70 11.80 8.18 9.99 11.17 9.94 11.22 13.19 15.21 14.41 17.10 18.30 18.21 18.94 19.99 20.19 20.91 21.40 19.44 19.10
34.15 33.78 33.51 32.80 32.97 32.38 30.41 27.91 25.36 28.59 31.93 32.82 32.79 32.30 31.98 31.45 31.17 30.33 30.18 29.93 28.99 26.65 19.82 13.37 11.25 10.76 11.02 16.81 15.78 16.33 14.77 16.92 21.14 18.50 18.75 18.34 20.04 21.16 21.09 21.68 22.32 21.17 19.38
34.39 33.16 33.97 33.16 33.15 32.65 32.02 29.75 26.90 24.26 21.17 22.30 30.21 30.58 30.53 30.11 29.48 28.95 28.63 27.33 22.73 20.69 21.70 18.71 17.04 18.93 20.46 20.60 20.66 20.57 19.10 16.51 17.33 21.13 19.69 20.96 20.25 19.93 19.65 21.18 21.48 20.90 20.69
33.31 33.55 33.69 33.51 33.06 32.98 32.44 29.20 27.41 26.48 25.54 24.84 26.60 27.79 28.31 28.78 28.20 27.81 27.55 16.17 14.32 16.00 20.75 23.04 20.78 20.35 21.37 21.25 14.34 15.79 11.63 11.01 11.79 12.38 17.45 18.74 16.47 19.35 18.51 19.66 20.10 18.90 18.84
33.30 33.04 32.85 32.85 32.47 31.90 31.56 29.64 28.72 27.85 26.04 25.38 25.14 25.37 25.59 25.90 23.13 23.35 17.57 12.55 19.12 19.84 20.33 21.84 22.45 21.31 19.04 20.18 14.34 14.04 10.04 10.11 12.79 16.24 11.14 10.86 12.92 17.94 18.84 18.50 17.70 17.81 19.01
33.06 32.50 31.97 32.42 31.87 31.66 30.67 29.18 28.76 27.56 26.40 25.76 25.78 26.16 21.40 21.43 18.57 17.86 18.48 13.98 17.33 20.36 18.35 20.92 20.25 18.50 19.25 19.48 20.62 16.39 17.72 15.85 14.07 16.68 15.25 13.92 10.60 15.06 18.14 17.91 15.89 17.44 18.22
32.27 31.90 31.72 30.86 30.42 30.32 30.64 30.16 28.71 27.89 27.32 26.92 24.93 25.28 22.35 18.88 20.46 19.69 19.12 18.46 16.50 20.50 21.82 18.65 18.90 18.98 19.76 21.06 19.11 13.36 13.33 8.99 9.00 12.29 11.57 12.09 14.19 15.45 13.63 13.20 11.64 10.48 14.69
31.64 30.92 30.56 31.31 30.14 28.53 28.66 28.91 28.39 27.88 26.00 26.84 24.13 22.29 21.39 18.19 23.22 20.54 19.84 14.74 16.39 15.84 15.79 15.70 14.84 14.96 14.99 13.86 18.13 19.68 17.20 15.00 14.47 13.52 13.38 11.23 11.48 14.80 10.75 10.42 10.54 8.53 8.95
31.15 30.52 30.57 29.32 28.23 27.39 28.91 29.06 28.65 28.21 28.06 27.21 24.49 19.88 17.84 14.59 26.02 18.39 18.34 12.86 13.12 12.34 12.27 13.00 15.20 17.82 16.27 12.86 13.76 15.84 17.87 14.27 15.53 14.93 13.83 10.12 11.20 14.81 11.41 11.93 11.87 9.75 13.14
30.71 30.20 29.40 27.70 28.49 29.54 29.79 29.01 29.10 28.97 28.96 28.68 26.62 25.68 25.64 20.87 24.19 20.83 16.56 15.21 11.62 10.93 13.16 12.66 13.65 16.25 15.50 13.43 13.77 15.06 15.25 14.04 12.54 11.35 10.20 10.53 8.34 8.62 12.79 9.58 9.91 10.93 6.71
29.57 29.38 29.45 29.57 29.72 29.93 29.51 29.12 29.15 29.17 28.94 28.42 27.81 27.16 25.84 22.17 21.90 19.10 16.42 13.49 11.32 11.37 11.70 11.72 15.54 14.95 15.06 15.90 16.16 13.19 11.21 11.06 9.83 9.63 9.20 11.27 9.36 8.03 9.82 8.78 8.87 9.33 7.06
MSLP
1013.80 1014.29 1014.72 1015.06 1015.25 1015.67 1016.06 1016.20 1016.47 1016.82 1017.19 1017.62 1018.02 1018.41 1018.84 1019.13 1019.48 1019.71 1020.02 1020.22 1020.45 1020.55 1020.74 1020.97 1021.18 1021.34 1021.56 1021.64 1021.91 1022.15 1022.44 1022.57 1023.12 1023.49 1023.38 1023.94 1024.78 1025.38 1026.35 1026.87 1027.58 1028.16 1028.31
1013.46 1013.96 1014.43 1014.75 1015.05 1015.51 1015.96 1016.24 1016.58 1016.95 1017.26 1017.65 1018.04 1018.23 1018.52 1018.76 1019.01 1019.46 1019.67 1019.81 1020.05 1020.38 1020.47 1020.66 1021.05 1021.51 1021.88 1021.95 1021.95 1022.23 1022.27 1022.35 1022.97 1023.83 1023.82 1024.23 1024.86 1025.42 1026.13 1026.84 1027.72 1028.20 1028.50
1013.38 1013.88 1014.33 1014.68 1015.07 1015.46 1015.80 1016.20 1016.62 1016.88 1017.24 1017.52 1017.90 1018.13 1018.38 1018.72 1018.79 1018.94 1019.19 1019.40 1019.54 1019.90 1020.35 1020.86 1021.15 1021.63 1022.22 1022.39 1022.15 1022.52 1022.31 1022.53 1022.80 1023.50 1023.89 1024.23 1025.18 1025.95 1026.42 1027.12 1027.84 1028.38 1028.65
1013.10 1013.69 1014.29 1014.76 1015.14 1015.46 1015.84 1016.43 1016.96 1017.14 1017.56 1017.93 1018.23 1018.44 1018.52 1018.70 1018.99 1019.08 1019.27 1019.44 1019.85 1020.39 1020.69 1021.24 1021.73 1022.33 1022.88 1022.87 1022.98 1023.15 1022.85 1022.90 1023.43 1023.79 1024.15 1024.63 1025.21 1026.11 1026.50 1027.20 1028.13 1028.45 1028.82
1013.12 1013.85 1014.50 1015.05 1015.55 1016.05 1016.30 1017.09 1017.50 1017.76 1018.17 1018.58 1019.01 1019.31 1019.41 1019.47 1019.72 1019.52 1019.51 1019.99 1020.46 1020.83 1021.18 1021.71 1022.37 1022.95 1023.34 1023.25 1023.31 1023.63 1023.51 1023.45 1023.81 1024.26 1024.52 1024.99 1025.37 1025.93 1026.22 1026.83 1027.54 1028.38 1028.98
1013.16 1014.15 1014.89 1015.78 1016.65 1017.07 1017.22 1017.77 1018.47 1018.93 1019.05 1019.34 1019.97 1020.41 1020.71 1020.75 1020.42 1020.17 1020.07 1020.48 1020.87 1021.23 1021.83 1022.44 1022.85 1023.33 1023.70 1023.76 1023.81 1023.99 1023.99 1024.22 1024.47 1024.54 1024.74 1024.87 1025.05 1025.47 1025.93 1026.27 1027.09 1028.13 1028.89
1013.77 1014.44 1015.08 1015.59 1017.53 1018.11 1018.45 1019.01 1019.70 1020.17 1020.20 1020.44 1020.84 1021.13 1021.35 1021.46 1021.20 1021.10 1020.67 1021.32 1021.71 1021.96 1022.22 1022.63 1023.11 1023.54 1023.73 1023.94 1024.18 1024.41 1024.55 1024.78 1025.04 1025.20 1024.91 1024.75 1024.71 1024.80 1025.22 1025.66 1026.30 1026.65 1027.36
1014.80 1015.31 1015.97 1016.62 1017.91 1018.94 1019.58 1020.11 1020.63 1021.10 1021.21 1021.45 1021.74 1021.96 1021.97 1022.10 1021.90 1021.92 1021.78 1022.11 1022.56 1022.82 1022.92 1023.12 1023.49 1024.04 1024.16 1024.25 1024.44 1024.66 1025.03 1025.19 1025.35 1025.43 1025.32 1024.99 1024.59 1024.05 1024.28 1024.46 1025.23 1026.36 1027.08
1016.44 1016.85 1017.11 1017.68 1018.70 1019.73 1020.24 1020.84 1021.29 1021.67 1021.73 1021.82 1021.99 1022.17 1022.50 1022.71 1022.42 1022.32 1022.48 1022.85 1023.28 1023.61 1023.66 1023.82 1024.16 1024.46 1024.51 1024.46 1024.55 1025.00 1025.33 1025.54 1025.43 1025.42 1025.23 1025.04 1024.56 1023.79 1023.95 1024.46 1025.08 1025.99 1026.88
1016.33 1017.08 1017.66 1018.05 1018.13 1019.45 1020.63 1021.20 1021.59 1021.86 1022.02 1022.24 1022.34 1022.62 1022.82 1022.91 1022.84 1022.80 1022.93 1023.19 1023.61 1024.12 1024.51 1024.59 1024.70 1024.89 1024.79 1024.68 1024.74 1025.09 1025.54 1025.93 1025.91 1025.72 1025.65 1025.36 1024.99 1024.66 1024.27 1024.15 1024.51 1025.18 1026.27
1016.82 1017.54 1018.20 1018.62 1019.63 1020.16 1020.82 1021.19 1021.48 1021.96 1022.32 1022.72 1022.99 1023.08 1023.11 1023.20 1023.32 1023.26 1023.16 1023.35 1023.74 1024.29 1024.91 1025.10 1025.25 1024.99 1024.97 1024.92 1025.14 1025.19 1025.64 1026.21 1026.33 1026.23 1026.06 1025.75 1025.57 1025.45 1025.21 1024.84 1024.47 1024.98 1025.84
1016.74 1017.83 1018.58 1019.34 1020.20 1020.83 1020.98 1021.22 1021.62 1022.04 1022.41 1022.72 1023.11 1023.28 1023.57 1023.64 1023.65 1023.60 1023.69 1023.67 1023.75 1024.41 1024.98 1025.18 1025.41 1025.24 1025.42 1025.48 1025.80 1025.49 1025.70 1026.37 1026.71 1026.72 1026.70 1026.60 1026.41 1026.26 1026.01 1025.57 1025.27 1025.48 1025.75
1017.46 1018.29 1019.07 1019.85 1020.48 1020.90 1021.23 1021.60 1021.95 1022.10 1022.44 1022.75 1022.92 1023.22 1023.53 1023.79 1023.86 1023.95 1024.17 1024.15 1024.25 1024.97 1025.15 1025.27 1025.26 1025.47 1025.76 1026.04 1025.99 1026.01 1026.54 1026.97 1027.17 1027.54 1027.58 1027.32 1027.07 1026.88 1026.68 1026.47 1026.33 1026.44 1026.85
1017.92 1018.89 1019.61 1020.09 1020.55 1020.96 1021.34 1021.72 1022.00 1022.29 1022.35 1022.46 1022.83 1022.96 1023.22 1023.59 1023.98 1024.10 1024.41 1024.81 1025.02 1025.38 1025.51 1025.99 1026.27 1026.45 1026.83 1026.98 1027.27 1027.06 1027.00 1027.18 1027.57 1027.74 1027.88 1027.65 1027.54 1027.31 1027.28 1027.35 1027.41 1027.48 1027.73
1018.26 1019.01 1019.57 1020.10 1020.45 1020.82 1021.33 1021.67 1021.75 1021.73 1021.81 1021.98 1022.32 1022.69 1022.98 1023.36 1023.56 1023.75 1024.37 1025.04 1025.32 1025.60 1026.34 1026.73 1026.85 1027.31 1027.56 1027.62 1027.69 1027.67 1027.72 1027.71 1027.77 1027.77 1027.72 1027.77 1027.78 1027.71 1027.76 1027.83 1027.89 1028.06 1028.35
1018.02 1018.67 1019.20 1019.63 1019.96 1020.44 1021.09 1021.49 1022.18 1021.83 1021.92 1021.76 1021.95 1022.33 1022.76 1022.86 1023.12 1023.58 1024.25 1024.61 1024.99 1025.59 1026.25 1027.06 1027.39 1027.67 1027.81 1028.09 1028.26 1028.20 1027.95 1027.89 1027.84 1027.89 1027.92 1027.91 1028.00 1028.02 1028.10 1028.21 1028.31 1028.48 1028.77
1017.41 1018.32 1019.11 1019.72 1020.23 1020.62 1021.12 1021.57 1022.11 1022.41 1022.31 1022.26 1022.23 1022.46 1022.76 1023.03 1023.21 1023.78 1024.27 1024.61 1025.11 1025.56 1026.22 1026.70 1027.06 1027.35 1027.66 1027.76 1027.87 1027.98 1028.27 1027.89 1027.73 1027.98 1028.08 1028.09 1028.08 1028.14 1028.27 1028.49 1028.67 1028.93 1029.27
1017.12 1017.95 1018.60 1019.23 1019.84 1020.26 1020.61 1021.09 1021.72 1022.27 1022.71 1022.80 1022.76 1022.89 1023.24 1023.47 1023.80 1024.19 1024.56 1024.95 1025.42 1025.71 1025.90 1026.29 1026.72 1026.96 1027.16 1027.41 1027.54 1027.81 1027.90 1027.91 1027.96 1028.09 1028.14 1028.22 1028.26 1028.31 1028.52 1028.62 1028.75 1029.09 1029.57
1016.97 1017.72 1018.21 1018.68 1019.13 1019.54 1020.08 1020.78 1021.49 1022.08 1022.55 1022.91 1023.13 1023.44 1023.71 1023.99 1024.25 1024.52 1024.85 1025.33 1025.82 1025.94 1025.83 1025.97 1026.06 1026.33 1026.65 1026.96 1027.24 1027.56 1027.74 1027.94 1028.04 1028.17 1028.34 1028.35 1028.42 1028.49 1028.81 1028.80 1028.99 1029.30 1029.72
1016.99 1017.50 1017.98 1018.49 1018.97 1019.36 1019.86 1020.57 1021.19 1021.78 1022.39 1022.82 1023.25 1023.63 1024.09 1024.43 1024.70 1024.97 1025.18 1025.46 1025.61 1025.62 1025.62 1025.77 1025.94 1026.13 1026.39 1026.73 1027.09 1027.49 1027.83 1028.07 1028.20 1028.35 1028.53 1028.61 1028.67 1028.64 1028.93 1029.14 1029.34 1029.66 1029.94
1017.13 1017.65 1018.08 1018.55 1018.90 1019.25 1019.78 1020.32 1020.90 1021.54 1022.16 1022.70 1023.17 1023.62 1024.09 1024.51 1024.92 1025.24 1025.41 1025.45 1025.47 1025.38 1025.40 1025.61 1025.83 1025.93 1026.21 1026.55 1026.96 1027.39 1027.68 1027.98 1028.25 1028.52 1028.71 1028.81 1028.92 1029.12 1029.26 1029.43 1029.64 1029.85 1030.25
1017.08 1017.70 1018.15 1018.52 1018.94 1019.22 1019.63 1020.10 1020.71 1021.31 1021.87 1022.43 1023.00 1023.50 1023.96 1024.38 1024.71 1024.96 1025.14 1025.29 1025.42 1025.15 1025.15 1025.55 1025.97 1025.93 1026.09 1026.29 1026.74 1027.22 1027.56 1027.89 1028.22 1028.44 1028.78 1029.00 1029.18 1029.33 1029.55 1029.80 1030.01 1030.31 1030.65
1017.04 1017.71 1018.09 1018.41 1018.84 1019.10 1019.49 1020.00 1020.53 1021.06 1021.58 1022.18 1022.77 1023.36 1023.77 1024.13 1024.38 1024.65 1024.88 1025.29 1025.18 1025.36 1025.43 1025.58 1025.90 1026.15 1026.16 1026.29 1026.35 1026.68 1027.23 1027.47 1027.90 1028.14 1028.74 1029.17 1029.43 1029.65 1029.81 1030.06 1030.34 1030.85 1031.11
1016.93 1017.59 1018.05 1018.29 1018.68 1019.09 1019.46 1019.93 1020.39 1020.82 1021.29 1021.83 1022.46 1023.05 1023.38 1023.63 1023.93 1024.30 1024.74 1025.18 1025.34 1025.50 1025.53 1025.76 1025.84 1026.00 1026.24 1026.48 1026.51 1026.58 1026.79 1027.15 1027.43 1027.86 1028.25 1029.04 1029.65 1029.82 1030.04 1030.25 1030.51 1030.84 1031.33
1016.96 1017.43 1017.86 1018.28 1018.58 1018.96 1019.36 1019.78 1020.24 1020.65 1021.02 1021.42 1022.05 1022.53 1022.82 1023.14 1023.62 1024.11 1024.69 1024.95 1025.39 1025.67 1025.68 1025.79 1025.94 1026.06 1026.32 1026.64 1026.75 1026.79 1026.86 1027.18 1027.52 1027.85 1028.29 1028.78 1029.42 1029.99 1030.25 1030.50 1030.82 1031.18 1031.53
1017.00 1017.39 1017.82 1018.18 1018.48 1018.78 1019.15 1019.57 1019.97 1020.38 1020.73 1021.14 1021.65 1022.06 1022.37 1022.88 1023.44 1023.95 1024.62 1025.00 1025.44 1025.62 1025.77 1025.88 1025.96 1026.17 1026.44 1026.68 1026.80 1026.95 1027.17 1027.47 1027.82 1028.03 1028.36 1028.83 1029.45 1030.11 1030.47 1030.77 1031.01 1031.29 1031.61
Wind_Speed
9 7 7 7 7 7 6 6 6 5 7 7 7 7 6 6 6 6 6 5 6 6 3 5 4 3 2 2 3 2 1 1 1 1 1 8 9 12 10 8 8 6 7
7 7 8 7 6 6 6 5 5 5 4 6 5 5 6 6 7 7 7 6 6 6 6 5 5 3 2 2 1 2 2 1 3 2 2 6 5 9 11 11 8 7 6
7 7 7 7 7 6 6 5 6 6 4 3 4 3 3 4 4 6 7 6 5 5 5 5 5 4 3 3 1 1 2 3 1 3 3 3 5 7 10 8 7 7 6
7 7 7 6 6 6 5 6 5 6 7 5 5 2 1 1 3 3 2 4 6 7 8 9 7 7 5 5 6 5 4 2 2 3 4 5 5 5 7 7 7 5 7
7 7 6 4 5 5 7 7 7 7 7 8 8 9 9 8 6 4 6 6 7 7 8 10 9 10 13 9 4 4 5 3 3 3 3 3 4 7 9 6 7 6 4
8 9 10 9 7 6 7 8 9 9 9 9 9 9 8 6 9 8 7 5 5 7 8 7 7 9 10 10 11 12 9 3 3 1 2 7 6 7 5 8 8 7 4
12 10 10 10 8 7 8 9 8 7 7 8 7 6 6 5 11 10 13 7 6 6 6 6 6 5 6 5 10 11 12 13 9 1 2 2 5 9 8 10 10 9 4
10 10 9 11 9 7 7 7 6 4 6 5 5 5 5 5 10 11 13 9 8 8 8 6 7 5 5 5 4 5 5 5 5 3 1 3 4 9 11 11 10 6 6
7 7 7 9 9 6 7 5 4 4 4 4 3 5 6 3 7 10 8 7 8 8 7 6 6 5 5 4 3 4 4 2 4 3 3 4 7 5 9 8 9 8 4
8 8 7 7 8 8 6 5 2 3 4 3 4 4 6 4 8 9 7 5 7 5 5 5 8 4 4 4 2 4 4 1 1 3 3 3 5 7 3 6 7 8 5
8 9 8 8 7 8 6 4 4 5 5 4 4 3 5 4 5 8 6 3 5 5 4 2 2 7 5 7 6 4 4 3 2 3 2 3 4 5 4 4 3 8 5
10 9 8 7 5 4 7 4 5 5 5 4 4 3 3 3 6 9 7 5 6 4 5 2 3 7 8 7 5 9 7 3 2 2 3 3 3 4 4 5 7 7 6
9 8 7 6 5 5 5 4 4 5 4 4 4 4 4 3 3 9 4 3 7 5 4 8 11 9 9 6 8 6 5 3 3 3 2 2 1 2 3 4 7 10 10
9 7 5 5 5 4 3 3 3 4 5 5 4 4 5 4 4 3 3 5 9 5 6 5 4 5 4 3 3 4 2 3 3 3 2 1 1 2 3 2 3 5 6
8 7 6 4 4 5 3 2 3 1 4 5 4 5 6 5 5 8 7 4 3 6 5 4 3 3 2 2 2 2 3 2 3 1 2 1 2 2 2 2 2 2 3
10 8 7 6 6 6 5 5 9 6 4 7 8 6 1 9 15 13 11 10 13 13 3 3 2 2 3 2 2 0 1 2 1 2 1 2 2 2 2 2 2 3 5
9 7 5 3 4 5 6 5 6 5 9 7 10 10 10 12 13 12 11 12 16 8 2 2 3 3 3 2 2 2 2 2 1 2 1 2 1 1 2 2 3 2 2
8 9 6 6 6 5 6 6 6 5 3 1 5 9 12 12 11 11 12 9 4 1 1 3 3 4 3 3 3 2 2 2 1 1 1 3 2 2 1 2 2 5 4
8 6 6 6 6 6 5 6 6 6 5 4 3 4 7 11 10 11 11 3 3 2 1 2 3 3 3 4 3 3 3 2 1 2 2 2 2 2 1 2 3 5 5
6 8 6 5 5 5 6 7 6 6 6 5 4 4 5 5 3 2 2 1 2 2 2 2 2 2 3 4 4 4 3 2 1 2 2 2 2 2 2 3 3 3 2
4 4 5 5 5 6 6 6 6 6 6 5 5 5 8 5 4 4 4 3 2 2 2 3 2 3 4 4 4 4 3 2 3 3 2 2 3 3 3 3 3 2 5
5 5 4 5 6 7 6 6 6 6 7 6 5 7 10 3 4 4 4 3 3 2 2 3 3 3 4 4 4 4 4 4 2 3 3 2 2 3 3 3 2 2 4
5 5 5 5 5 6 5 6 6 6 6 6 7 5 5 3 5 4 4 3 3 3 2 3 3 2 1 3 3 4 5 4 4 4 4 3 2 3 2 3 3 2 3
6 6 5 5 5 4 5 6 5 7 7 7 7 5 4 4 4 4 5 3 3 2 3 3 3 5 4 3 3 3 3 3 4 4 6 4 3 4 2 2 3 3 3
5 5 6 5 5 5 6 6 6 6 6 7 7 6 4 4 5 5 5 4 3 3 3 3 3 6 6 6 5 5 5 7 5 6 4 5 5 5 4 3 3 3 3
5 5 4 5 5 5 6 6 6 6 6 6 6 5 4 5 5 5 5 4 3 3 4 3 5 7 7 6 7 7 7 7 5 5 4 4 4 3 4 4 5 3 4
Wind_Direction
170 176 171 182 180 155 166 176 166 156 151 165 179 183 188 190 194 188 208 214 204 199 177 181 186 138 109 39 34 54 62 76 218 323 82 136 138 145 146 137 133 132 131
170 165 166 166 160 154 160 167 161 158 158 164 175 182 192 198 196 203 202 204 197 200 203 197 163 137 68 14 323 320 330 289 146 177 122 144 134 144 141 136 144 142 133
161 164 162 163 153 159 163 144 141 128 126 149 140 165 198 230 214 210 208 206 188 151 105 92 78 73 54 352 31 0 43 19 117 160 139 106 115 143 137 138 145 137 138
165 158 160 162 154 155 149 124 121 92 76 50 27 351 315 301 23 357 195 163 105 105 93 86 77 77 61 32 50 17 1 42 46 116 120 133 129 152 143 139 138 152 149
133 125 141 115 83 79 93 81 79 69 62 57 47 40 42 47 22 36 79 102 117 106 92 91 87 91 80 67 79 39 24 19 73 149 143 136 143 158 174 164 148 148 161
110 102 96 80 65 72 78 74 65 60 57 57 50 53 45 45 14 11 104 101 101 107 104 99 106 92 84 86 87 73 61 43 37 83 193 180 176 178 163 159 152 157 172
105 104 101 94 72 41 60 59 57 48 51 56 51 63 66 48 40 53 77 77 81 87 106 117 101 86 92 83 87 82 68 58 52 342 303 186 180 178 170 173 175 176 156
83 85 79 89 91 79 74 73 67 59 57 55 53 63 79 62 66 65 74 84 80 68 65 87 101 84 66 79 93 83 67 66 43 27 40 310 296 192 190 187 174 143 113
92 79 84 97 94 92 91 95 88 91 79 70 63 78 82 48 82 88 87 88 87 78 68 79 88 83 54 44 95 115 86 41 53 3 10 34 14 221 165 143 159 159 141
134 152 139 135 124 102 108 108 102 95 96 93 76 81 106 84 67 110 112 110 102 97 79 73 92 96 70 48 101 141 102 295 24 356 357 354 23 29 86 185 166 168 129
116 102 105 103 117 122 128 129 120 108 105 94 104 95 101 100 85 75 118 105 133 134 127 101 53 89 87 74 85 109 151 153 89 80 32 6 42 32 16 21 145 153 138
106 115 111 109 109 132 128 118 123 128 124 127 136 117 104 94 106 89 73 91 137 138 133 129 117 102 92 93 80 102 113 95 78 66 39 51 48 39 20 32 54 76 59
107 108 114 125 135 132 122 136 140 142 146 167 169 150 142 118 90 96 84 77 121 100 126 134 110 104 89 76 87 65 56 68 85 67 54 47 32 74 32 35 57 73 70
116 127 137 137 138 127 113 152 156 184 187 176 178 161 154 144 139 121 84 88 96 91 105 87 96 89 89 96 20 13 28 103 126 135 119 5 8 35 87 47 74 77 81
132 140 143 145 149 132 110 213 188 165 188 171 170 166 165 167 171 149 150 158 145 136 105 73 71 61 55 12 20 31 26 54 100 82 84 80 50 53 50 58 79 71 93
156 161 168 167 174 161 150 98 53 88 95 151 143 142 115 143 151 157 173 190 153 145 92 123 161 157 154 172 166 332 14 125 135 91 113 124 119 120 105 76 74 82 111
153 153 154 152 178 158 157 144 130 69 70 99 120 128 136 144 146 150 152 150 159 146 151 171 164 159 185 177 167 172 191 219 157 109 129 130 100 112 137 135 147 110 88
146 153 156 165 181 178 176 160 144 143 135 57 102 126 133 134 145 154 159 144 150 32 205 158 168 170 173 184 187 165 147 119 149 182 141 152 158 141 99 107 111 124 130
154 160 167 175 176 166 150 139 147 153 146 141 115 112 136 146 152 157 160 132 165 193 153 135 164 168 172 166 140 145 148 163 145 106 109 116 120 105 111 115 114 125 128
128 138 148 153 149 147 147 151 149 142 144 145 147 151 141 140 139 167 169 187 257 210 173 157 188 174 153 150 145 153 138 135 112 116 128 117 90 103 96 110 109 121 106
126 138 143 147 160 157 151 149 145 144 149 159 163 155 158 162 177 180 198 226 201 194 185 166 157 141 143 143 140 140 141 156 139 142 141 138 114 102 112 120 115 106 117
138 149 156 169 175 164 160 149 148 151 157 161 152 167 174 154 183 186 198 195 159 156 163 145 142 145 153 158 157 148 156 172 174 152 154 162 130 125 120 127 123 96 122
140 162 170 160 159 143 138 145 150 158 154 157 160 168 176 177 183 185 165 162 131 103 79 109 144 117 123 148 149 152 152 170 178 151 139 141 134 131 136 144 142 111 124
145 156 160 147 143 138 146 151 150 159 160 158 164 172 177 179 177 165 151 148 121 121 108 98 107 132 108 89 96 116 135 141 133 144 140 131 135 142 104 116 123 116 123
139 142 147 149 154 159 153 153 160 163 161 158 162 176 171 151 138 136 139 140 138 134 136 126 128 135 134 118 107 129 124 125 124 119 103 116 133 132 125 121 130 123 121
138 142 148 149 154 152 153 156 158 158 160 156 159 167 155 141 145 144 150 147 150 144 145 136 137 134 131 135 136 122 115 119 126 125 110 108 116 118 118 128 133 139 143